Location: Feydey
(46.3431°N, 7.0106°E)
Time: 04:49:07
(UTC+00:00)

Daily predictions for brighter satellites

Satellite Brightness Start Highest point End
(mag) Time Altitude Azimuth Time Altitude Azimuth Time Altitude Azimuth
BREEZE-M R/B 4.0 00:04:50 40° E 00:04:50 40° E 00:09:10 10° E
Sich 1 Rocket 4.5 00:02:41 10° N 00:07:05 43° ENE 00:07:12 43° E
SeaSat 1 3.0 00:02:46 10° NNE 00:07:33 50° NW 00:08:06 47° WNW
USA 215 3.7 00:10:09 41° WSW 00:10:09 41° WSW 00:15:33 10° WNW
Cosmos 1943 Rocket 2.3 00:09:25 57° W 00:10:09 63° WNW 00:15:44 10° NNE
Cosmos 2242 Rocket 4.0 00:11:36 57° NW 00:11:36 57° NW 00:15:24 10° N
ATLAS 2AS CENTAUR R/B 3.0 00:04:40 10° NW 00:11:36 48° WSW 00:11:46 48° WSW
Cosmos 1607 4.4 00:11:32 44° SE 00:12:06 45° ESE 00:18:14 10° NE
Cosmos 1356 Rocket 4.0 00:08:15 10° N 00:11:59 55° NE 00:11:59 55° NE
Cosmos 2298 Rocket 4.2 00:13:51 58° ESE 00:13:55 58° ESE 00:19:07 10° NNE
Cosmos 1461 3.5 00:15:16 58° ENE 00:15:16 58° ENE 00:19:12 10° NE
Cosmos 2239 Rocket 4.4 00:08:47 10° N 00:15:06 88° E 00:16:15 63° S
Cosmos 1937 Rocket 4.4 00:18:25 35° W 00:19:10 37° WNW 00:23:58 10° N
EO 1 Del DPAF 4.4 00:16:16 10° N 00:18:53 39° NNW 00:18:53 39° NNW
EO 1 Delta rocket 3.9 00:22:19 74° W 00:22:19 74° W 00:27:36 10° NNW
Cosmos 1833 4.4 00:18:39 10° NNW 00:24:24 67° ENE 00:26:12 44° SE
SL-16 R/B 3.5 00:21:04 21° ESE 00:24:50 43° ENE 00:30:41 10° N
Cosmos 1048 Rocket 3.9 00:20:32 10° NNW 00:25:55 86° ENE 00:26:21 76° SE
Meteor 1-15 Rocket 4.5 00:20:20 10° N 00:25:56 63° ENE 00:27:18 48° SE
Okean 1-7 3.8 00:29:25 42° NW 00:29:25 42° NW 00:32:56 10° N
YAOGAN 11 4.3 00:32:59 66° NW 00:32:59 66° NW 00:36:45 10° NNW
Cosmos 2151 Rocket 4.3 00:31:57 10° N 00:36:21 46° ENE 00:36:57 43° E
Okean 2 Rocket 3.4 00:32:42 10° N 00:37:04 59° ENE 00:37:10 59° E
Gbstr 26 Del rocket 3.7 00:30:22 10° WNW 00:37:06 87° NNE 00:42:26 10° ESE
Cosmos 1821 Rocket 4.3 00:33:20 10° NNW 00:39:31 52° W 00:40:28 48° WSW
Helios 1A 3.4 00:41:18 56° NW 00:41:18 56° NW 00:44:43 10° NNW
Okean 3 3.8 00:41:55 58° NW 00:41:55 58° NW 00:45:42 10° N
Cosmos 2344 4.4 00:32:39 10° NW 00:41:55 83° NE 00:54:55 10° SE
Cosmos 1656 Rocket 3.4 00:42:15 71° SSW 00:42:53 85° ESE 00:48:25 10° NNE
Cosmos 2150 Rocket 3.9 00:45:19 70° SW 00:45:57 84° WNW 00:51:20 10° NNE
Helios 1B rocket 3.5 00:42:36 10° NNE 00:46:27 36° E 00:46:30 36° E
ISS -1.7 00:48:19 24° ENE 00:48:19 24° ENE 00:49:52 10° ENE
Cosmos 1934 Rocket 3.9 00:45:07 10° NNW 00:51:19 73° W 00:52:36 55° SSW
Cosmos 1867 3.4 00:52:08 66° S 00:52:51 77° ESE 00:58:20 10° NE
RESURS DK-1 2.6 00:48:58 10° NNW 00:52:35 66° NNW 00:52:35 66° NNW
UNK 4.3 00:53:30 40° ESE 00:54:46 53° ENE 00:59:15 10° N
CZ-2D R/B 2.5 00:51:37 10° NNE 00:57:00 55° E 00:58:21 43° SSE
COSMOS 2487 4.1 00:57:30 10° N 01:00:30 28° ENE 01:01:12 26° E
ATLAS CENTAUR R/B 2.0 01:02:36 42° E 01:02:36 42° E 01:05:34 10° NE
Cosmos 1300 Rocket 3.8 00:58:08 10° NNW 01:02:12 58° WNW 01:02:12 58° WNW
Cosmos 1535 Rocket 4.5 00:56:41 10° NNW 01:02:50 66° W 01:04:22 50° SSW
SL-27 R/B 4.3 01:05:03 10° NNW 01:06:28 23° NW 01:06:28 23° NW
Cosmos 2221 Rocket 3.6 01:08:51 68° WSW 01:09:07 70° W 01:13:41 10° N
USA 281 3.3 01:09:03 45° SSW 01:10:35 54° WSW 01:17:01 10° NNW
USA 81 4.0 01:08:45 10° N 01:14:00 67° W 01:14:57 55° SW
Cosmos 1707 4.0 01:20:58 28° ESE 01:21:53 32° E 01:25:20 10° NNE
MOZ.5/SAFIR/RUBIN 5/SL-8 4.3 01:24:37 41° W 01:24:37 41° W 01:28:54 10° NNW
Meteor 2-10 4.2 01:19:01 10° N 01:24:32 76° ENE 01:27:05 32° SSE
Cosmos 1125 Rocket 4.0 01:24:54 40° WSW 01:26:11 49° WNW 01:31:16 10° NNE
Cosmos 1766 3.9 01:23:05 10° NNW 01:26:23 42° WNW 01:26:23 42° WNW
IDEFIX/ARIANE 42P 4.3 01:25:07 10° NE 01:29:31 26° E 01:33:19 13° SE
Cosmos 1400 Rocket 2.8 01:26:13 10° N 01:30:23 89° E 01:31:01 63° SSE
Resurs 1-4 Rocket 2.0 01:25:53 10° NNE 01:31:10 76° WNW 01:32:44 46° SSW
Cosmos 2369 Rocket 3.5 01:31:09 22° W 01:33:33 29° NW 01:38:28 10° N
ADEOS II 2.6 01:28:32 10° NNE 01:33:42 54° E 01:36:09 29° SSE
Cosmos 1153 Rocket 4.5 01:31:10 10° N 01:37:33 80° W 01:40:56 30° S
Cosmos 1975 Rocket 4.5 01:36:21 19° SE 01:38:44 33° E 01:42:39 10° NNE
Meteor 2-20 Rocket 4.5 01:39:37 31° S 01:42:45 82° E 01:48:57 10° N
CZ-3B R/B 4.1 01:28:48 23° SW 01:42:51 80° SE 01:48:15 10° ENE
SL-19 R/B 4.2 01:37:23 10° NNE 01:43:14 86° WNW 01:45:37 37° SSW
Cosmos 1605 Rocket 4.4 01:38:30 10° NNW 01:44:22 46° W 01:46:26 34° SW
Tianhe-1 3.2 01:46:44 18° ESE 01:46:44 18° ESE 01:47:50 10° ESE
Gblst 52 Del rocket 4.3 01:39:21 10° WNW 01:45:24 56° SW 01:50:52 10° SE
ARGOS Delta rocket 3.8 01:41:15 10° NNE 01:45:45 75° E 01:47:33 37° S
Lacrosse 5 2.9 01:45:07 27° SSE 01:46:44 33° SE 01:51:16 10° ENE
Cosmos 1470 2.6 01:45:49 10° NNW 01:49:43 73° W 01:50:26 55° SSW
Cosmos 1378 Rocket 3.8 01:51:10 44° WSW 01:52:04 53° WNW 01:56:20 10° N
Cosmos 1943 Rocket 4.4 01:52:04 10° WNW 01:55:05 14° NW 01:58:05 10° N
Cosmos 1459 Rocket 4.0 01:49:27 10° N 01:55:49 84° E 02:01:05 15° S
BREEZE-M DEB (TANK) 3.9 01:53:33 29° S 01:55:53 45° SE 02:08:45 10° ENE
NOSS 2-1 (E) 4.3 01:50:53 10° NW 01:55:58 85° SW 02:03:15 10° SE
Cosmos 724 4.4 01:56:07 32° SW 01:59:11 76° NW 02:05:28 10° NNE
Okean 1 Rocket 3.3 01:54:59 10° NNW 01:59:18 51° W 02:00:21 41° SW
Cosmos 1269 Rocket 4.2 01:54:26 10° NNW 01:59:33 50° WSW 02:01:40 32° SSW
IRS-1D 3.7 01:55:54 10° NNE 02:01:14 78° ESE 02:04:22 26° S
Cosmos 2173 Rocket 3.9 01:55:26 10° N 02:01:36 87° W 02:06:41 16° S
Cosmos 1726 2.2 02:00:19 10° NNW 02:03:58 55° W 02:04:34 48° SW
Cosmos 44 Rocket 3.4 02:00:03 10° NW 02:05:13 63° WSW 02:10:15 10° SSE
COSMOS 2455 3.3 02:00:19 10° NNW 02:06:19 65° NE 02:12:18 10° SE
Cosmos 1802 Rocket 4.0 02:02:09 10° N 02:08:22 85° E 02:14:30 10° S
SL-16 R/B 3.1 02:06:09 28° SW 02:08:29 37° W 02:14:15 10° NNW
Meteor 1-28 Rocket 3.0 02:07:33 30° S 02:09:18 86° WSW 02:13:02 10° NNW
Cosmos 1842 4.4 02:10:36 26° W 02:11:09 27° WNW 02:14:28 10° NNW
Meteor 1-29 3.6 02:09:43 10° N 02:12:52 38° WNW 02:13:24 36° W
NPP 4.3 02:10:25 10° N 02:15:27 42° WNW 02:18:04 25° WSW
Cosmos 2100 Rocket 4.0 02:10:49 10° NNW 02:17:00 64° W 02:21:53 17° S
Cosmos 1626 3.9 02:13:52 10° SSE 02:17:05 29° E 02:20:18 10° NNE
Cosmos 2227 Rocket 3.1 02:13:05 10° NNW 02:18:36 51° ENE 02:24:05 10° SE
GP-B 3.7 02:15:33 10° N 02:19:57 57° E 02:24:16 10° SSE
Okean 2 4.3 02:19:01 28° WSW 02:20:13 33° WNW 02:24:01 10° N
Cosmos 1953 2.5 02:17:21 10° N 02:21:20 72° E 02:25:13 10° SSE
Helios 1B rocket 4.0 02:18:14 10° NNW 02:21:30 23° WNW 02:22:49 20° W
Cosmos 2297 Rocket 2.5 02:17:11 10° NNW 02:22:52 70° ENE 02:28:30 10° SE
DELTA 2 DEB (DPAF) 4.5 02:21:24 27° SSW 02:23:25 45° W 02:27:42 10° NNW
ISS -2.4 02:21:16 17° WNW 02:23:29 37° NNW 02:26:40 10° ENE
Gbstr 26 Del rocket 4.3 02:18:36 10° WNW 02:23:32 27° SW 02:26:07 18° S
BREEZE-M R/B 4.4 02:21:38 10° W 02:26:03 41° SSW 02:34:51 10° SE
Cosmos 2123 Rocket 4.0 02:23:04 14° S 02:28:26 85° E 02:34:40 10° N
ADEOS Rocket 3.5 02:23:05 10° S 02:30:11 68° W 02:37:53 10° NNW
Spot 1 4.2 02:30:01 14° S 02:33:47 61° WSW 02:38:30 10° NNW
Cosmos 371 Rocket 3.7 02:30:01 16° S 02:33:49 62° ESE 02:38:39 10° NNE
Cosmos 1544 Rocket 3.7 02:30:04 10° N 02:34:27 74° E 02:38:50 10° SSE
IRS-P3 4.3 02:29:24 10° NNE 02:34:48 75° ESE 02:39:43 12° S
Cosmos 1025 Rocket 3.3 02:31:16 13° S 02:35:01 67° E 02:39:21 10° NNE
COSMOS 2487 4.1 02:32:45 10° NW 02:34:28 17° W 02:34:28 17° W
CZ-2D R/B 3.5 02:32:20 10° N 02:36:40 25° WNW 02:39:40 15° WSW
ATLAS CENTAUR R/B 3.0 02:38:44 13° W 02:41:02 21° NW 02:43:59 10° NNE
[s.n.48335] 2.8 02:41:23 35° WSW 02:41:49 38° SW 02:44:16 10° SSE
[s.n.48334] 2.8 02:41:26 35° WSW 02:41:52 38° SW 02:44:20 10° SSE
[s.n.48333] 2.8 02:41:41 37° SW 02:41:55 38° SW 02:44:21 10° SSE
[s.n.48332] 2.8 02:41:30 35° WSW 02:41:56 38° SW 02:44:24 10° SSE
[s.n.48331] 2.8 02:41:39 35° WSW 02:42:05 38° SW 02:44:32 10° SSE
[s.n.48330] 2.8 02:41:53 36° SW 02:42:08 38° SW 02:44:34 10° SSE
[s.n.48329] 2.8 02:41:47 35° WSW 02:42:13 38° SW 02:44:41 10° SSE
[s.n.48328] 2.8 02:42:01 36° SW 02:42:16 38° SW 02:44:42 10° SSE
Lacrosse 4 Rocket 4.1 02:39:33 10° SE 02:42:17 16° ESE 02:45:02 10° ENE
[s.n.48327] 2.8 02:42:04 36° SW 02:42:20 37° SW 02:44:45 10° SSE
[s.n.48326] 2.8 02:42:00 35° WSW 02:42:25 38° SW 02:44:52 10° SSE
ARIANE 5 R/B 2.7 02:39:09 10° NNE 02:44:21 72° ESE 02:49:27 10° S
[s.n.48324] 2.9 02:44:12 32° WSW 02:44:41 36° SW 02:47:06 10° SSE
[s.n.48325] 2.9 02:44:48 30° WSW 02:45:26 35° SW 02:47:52 10° SSE
[s.n.48323] 2.9 02:45:06 32° WSW 02:45:32 35° SW 02:47:57 10° SSE
[s.n.48321] 2.9 02:45:16 32° WSW 02:45:43 35° SW 02:48:08 10° SSE
Cosmos 1455 Rocket 3.2 02:41:31 10° NNW 02:45:43 52° W 02:49:31 12° SSW
[s.n.48320] 2.9 02:45:17 31° WSW 02:45:47 35° SW 02:48:12 10° SSE
[s.n.48322] 3.0 02:45:11 30° WSW 02:45:49 35° SW 02:48:17 10° SSE
[s.n.48318] 2.9 02:45:26 32° WSW 02:45:52 35° SW 02:48:17 10° SSE
[s.n.48319] 2.9 02:45:26 32° WSW 02:45:52 35° SW 02:48:17 10° SSE
[s.n.48317] 2.9 02:45:35 32° WSW 02:46:01 34° SW 02:48:25 10° SSE
[s.n.48316] 2.9 02:45:38 31° WSW 02:46:04 34° SW 02:48:29 10° SSE
[s.n.48315] 3.0 02:45:43 31° WSW 02:46:11 34° SW 02:48:35 10° SSE
[s.n.48314] 3.0 02:45:46 31° WSW 02:46:15 34° SW 02:48:39 10° SSE
[s.n.48313] 3.0 02:45:51 31° WSW 02:46:19 34° SW 02:48:43 10° SSE
[s.n.48312] 3.0 02:45:55 31° WSW 02:46:23 34° SW 02:48:47 10° SSE
[s.n.48311] 3.0 02:46:01 31° WSW 02:46:28 34° SW 02:48:51 10° SSE
[s.n.48310] 3.0 02:45:50 29° WSW 02:46:31 35° SW 02:48:57 10° SSE
[s.n.48309] 3.0 02:45:54 29° WSW 02:46:36 35° SW 02:49:02 10° SSE
[s.n.48308] 3.0 02:45:59 29° WSW 02:46:40 34° SW 02:49:06 10° SSE
[s.n.48307] 3.0 02:46:13 30° WSW 02:46:45 34° SW 02:49:08 10° SSE
[s.n.48306] 3.0 02:46:13 30° WSW 02:46:48 34° SW 02:49:13 10° SSE
[s.n.48305] 3.0 02:46:18 30° WSW 02:46:53 34° SW 02:49:18 10° SSE
[s.n.48304] 3.0 02:46:26 30° WSW 02:46:56 34° SW 02:49:21 10° SSE
[s.n.48303] 3.0 02:46:26 29° WSW 02:47:02 34° SW 02:49:26 10° SSE
[s.n.48302] 3.0 02:46:30 29° WSW 02:47:05 34° SW 02:49:30 10° SSE
[s.n.48301] 3.0 02:46:39 30° WSW 02:47:10 34° SW 02:49:34 10° SSE
[s.n.48300] 3.0 02:46:40 30° WSW 02:47:13 34° SW 02:49:36 10° SSE
[s.n.48299] 3.0 02:46:47 30° WSW 02:47:19 34° SW 02:49:43 10° SSE
[s.n.48298] 3.0 02:46:46 29° WSW 02:47:23 34° SW 02:49:48 10° SSE
[s.n.48297] 3.0 02:46:44 28° WSW 02:47:29 34° SW 02:49:54 10° SSE
[s.n.48296] 3.0 02:46:48 27° WSW 02:47:33 34° SW 02:49:58 10° SSE
[s.n.48295] 3.0 02:47:03 29° WSW 02:47:37 33° SW 02:50:01 10° SSE
[s.n.48294] 3.0 02:47:08 29° WSW 02:47:42 33° SW 02:50:05 10° SSE
[s.n.48293] 3.0 02:47:12 29° WSW 02:47:45 33° SW 02:50:09 10° SSE
[s.n.48292] 3.0 02:47:00 27° WSW 02:47:48 34° SW 02:50:15 10° SSE
[s.n.48291] 3.0 02:47:20 29° WSW 02:47:54 33° SW 02:50:18 10° SSE
[s.n.48290] 3.0 02:47:21 29° WSW 02:47:56 33° SW 02:50:20 10° SSE
[s.n.48289] 3.0 02:47:28 29° WSW 02:48:03 33° SW 02:50:27 10° SSE
[s.n.48288] 3.0 02:47:32 29° WSW 02:48:07 33° SW 02:50:31 10° SSE
[s.n.48286] 3.0 02:47:32 29° WSW 02:48:07 33° SW 02:50:32 10° SSE
[s.n.48287] 3.0 02:47:35 29° WSW 02:48:11 33° SW 02:50:35 10° SSE
[s.n.48285] 3.0 02:47:45 29° WSW 02:48:21 33° SW 02:50:44 10° SSE
CZ-2D R/B 4.2 02:44:05 10° NNE 02:48:22 56° E 02:52:42 10° S
[s.n.48284] 3.0 02:47:48 28° WSW 02:48:24 33° SW 02:50:48 10° SSE
[s.n.48283] 3.0 02:47:53 28° WSW 02:48:29 33° SW 02:50:53 10° SSE
[s.n.48282] 3.0 02:47:56 28° WSW 02:48:34 33° SW 02:50:58 10° SSE
[s.n.48281] 3.1 02:47:49 26° WSW 02:48:39 33° SW 02:51:05 10° SSE
[s.n.48280] 3.0 02:48:06 28° WSW 02:48:44 33° SW 02:51:06 10° SSE
[s.n.48279] 3.1 02:48:09 28° WSW 02:48:47 32° SW 02:51:11 10° SSE
[s.n.48278] 3.1 02:48:11 28° WSW 02:48:51 32° SW 02:51:15 10° SSE
[s.n.48277] 3.1 02:48:18 28° WSW 02:48:56 32° SW 02:51:19 10° SSE
[s.n.48276] 3.1 02:48:17 26° WSW 02:49:03 33° SW 02:51:28 10° SSE
CZ-4C R/B 4.1 02:45:49 15° SSW 02:49:06 40° W 02:53:10 10° NNW
Cosmos 1536 Rocket 4.2 02:47:27 10° S 02:51:43 57° E 02:56:03 10° NNE
Cosmos 2219 3.2 02:48:11 10° NNW 02:53:53 80° WSW 02:59:36 10° SSE
KORONAS-FOTON 4.1 02:52:13 18° SSW 02:54:57 50° WNW 02:58:48 10° N
Cosmos 1707 4.4 02:56:07 15° WSW 02:57:49 20° WNW 03:00:40 10° NNW
CZ-2C R/B 4.3 02:54:57 10° NNE 02:58:37 36° E 03:02:19 10° SSE
Cosmos 1674 3.2 02:56:38 17° SW 02:59:19 44° WNW 03:03:01 10° N
Cosmos 1140 Rocket 4.2 02:54:15 10° NNW 02:59:23 57° ENE 03:04:31 10° SE
Cosmos 1315 Rocket 3.9 02:58:46 10° NW 03:02:04 26° W 03:04:34 14° SW
COSMOS 2441 4.4 02:58:45 10° N 03:03:40 77° WNW 03:08:33 10° SSW
USA 129 1.7 03:02:22 10° S 03:04:49 77° WSW 03:07:01 10° NNW
IDEFIX/ARIANE 42P 3.1 03:04:18 10° N 03:09:17 45° WNW 03:14:08 11° SW
Resurs 1-4 Rocket 4.1 03:07:48 10° NNW 03:10:06 13° NW 03:12:24 10° W
Cosmos 2061 Rocket 4.4 03:04:38 10° NNW 03:10:31 43° W 03:16:26 10° SSW
Timation 2 Rocket 3.9 03:04:47 10° NW 03:10:41 62° WSW 03:16:35 10° SSE
Cosmos 1300 2.9 03:08:03 10° N 03:11:53 73° E 03:15:40 10° SSE
ADEOS II 3.5 03:08:54 10° N 03:13:02 24° WNW 03:17:05 10° WSW
TSX-5 3.4 03:10:17 10° NNW 03:13:35 79° WSW 03:17:26 10° SSE
Cosmos 614 Rocket 4.1 03:11:28 10° NNW 03:16:23 50° WSW 03:21:17 10° S
Cosmos 1975 Rocket 4.3 03:13:30 12° WSW 03:16:38 25° WNW 03:20:14 10° NNW
USA 276 2.6 03:14:03 13° SW 03:16:39 50° SSE 03:19:44 10° ENE
Cosmos 1908 4.1 03:13:27 10° NNW 03:16:53 30° W 03:20:18 10° SSW
Cosmos 1725 Rocket 4.5 03:11:49 10° NNW 03:17:39 41° W 03:23:25 10° SSW
Cosmos 2228 4.1 03:15:48 10° N 03:19:56 48° ENE 03:24:05 10° SSE
Tianhe-1 2.0 03:18:36 12° WSW 03:21:09 30° S 03:23:57 10° SE
BREEZE-M DEB (TANK) 2.3 03:19:52 11° SW 03:22:45 37° SSE 03:24:50 10° E
Cosmos 407 Rocket 3.5 03:18:23 10° NNW 03:23:45 81° WSW 03:29:06 10° SSE
SL-14 R/B 3.3 03:20:52 10° SSW 03:24:42 64° W 03:28:36 10° N
Cosmos 1656 4.0 03:20:51 10° SW 03:26:09 52° WNW 03:31:32 10° NNE
Spot 4 Rocket 4.1 03:22:54 10° NNE 03:28:04 77° WNW 03:33:12 10° SSW
SL-08 R/B 3.8 03:23:53 10° SSW 03:28:20 38° W 03:32:44 10° NNW
Cosmos 2263 Rocket 4.1 03:23:34 10° NNW 03:28:44 36° NE 03:33:55 10° ESE
Lacrosse 5 2.3 03:24:30 10° WSW 03:29:31 58° NNW 03:34:33 10° NE
Cosmos 2285 Rocket 4.4 03:27:06 10° S 03:33:26 72° ESE 03:39:51 10° NNE
Cosmos 2233 Rocket 4.4 03:31:13 10° NNW 03:37:05 45° W 03:42:54 10° SSW
SL-24 R/B 3.9 03:34:15 10° SSE 03:37:53 79° ENE 03:41:44 10° N
Cosmos 2056 Rocket 3.6 03:35:34 10° SSW 03:40:40 79° ESE 03:45:49 10° NNE
CZ-4B R/B 4.3 03:37:21 10° N 03:41:44 34° WNW 03:46:12 10° SW
